When you browse on this site, cookies collect data to enhance your experience and personalize the content and advertising you see.
Visit our Privacy Policy to learn more. By continuing to use the site, you agree to this use of cookies and data.
  • In Romania
  • List of Countries
  • For 7 days
  • Water Temperature
  • Satellite Maps
  • Weather Map
  • Weather Widgets
  • user-avatar
    Login

    Hourly Weather Eger

    Today, 20 January, Sunday

    Time Temperature Precipitation Wind Pressure Humidity
    00:00 -2°C° 0 mm 2 mps 746 mmHg 69%
    01:00 -2°C° 0 mm 2 mps 746 mmHg 68%
    02:00 -2°C° 0 mm 2 mps 746 mmHg 69%
    03:00 -2°C° 0 mm 2 mps 745 mmHg 69%
    04:00 -3°C° 0 mm 2 mps 745 mmHg 69%
    05:00 -3°C° 0.1 mm 2 mps 745 mmHg 73%
    06:00 -3°C° 0.1 mm 2 mps 745 mmHg 76%
    07:00 -3°C° 0 mm 2 mps 744 mmHg 80%
    08:00 -3°C° 0.3 mm 2 mps 744 mmHg 82%
    09:00 -3°C° 0.3 mm 2 mps 744 mmHg 83%
    10:00 -2°C° 0.3 mm 2 mps 744 mmHg 85%
    11:00 -2°C° 0.2 mm 2 mps 744 mmHg 83%
    12:00 0°C° 0.2 mm 1 mps 744 mmHg 82%
    13:00 +1°C° 0 mm 1 mps 744 mmHg 83%
    14:00 +1°C° 0.1 mm 1 mps 744 mmHg 84%
    15:00 0°C° 0.1 mm 1 mps 744 mmHg 84%
    16:00 0°C° 0.1 mm 1 mps 744 mmHg 85%
    17:00 0°C° 0 mm 1 mps 744 mmHg 85%
    18:00 0°C° 0 mm 1 mps 744 mmHg 86%
    19:00 0°C° 0 mm 1 mps 745 mmHg 86%
    20:00 0°C° 0 mm 1 mps 745 mmHg 84%
    21:00 0°C° 0 mm 1 mps 745 mmHg 83%
    22:00 0°C° 0 mm 1 mps 746 mmHg 81%
    23:00 0°C° 0 mm 1 mps 746 mmHg 80%

    Tomorrow, 21 January, Monday

    Time Temperature Precipitation Wind Pressure Humidity
    00:00 -1°C° 0 mm 1 mps 746 mmHg 79%
    01:00 -1°C° 0 mm 1 mps 747 mmHg 78%
    02:00 -1°C° 0 mm 1 mps 747 mmHg 76%
    03:00 -1°C° 0 mm 1 mps 747 mmHg 75%
    04:00 -2°C° 0 mm 1 mps 747 mmHg 73%
    05:00 -2°C° 0 mm 1 mps 747 mmHg 71%
    06:00 -2°C° 0 mm 1 mps 748 mmHg 68%
    07:00 -2°C° 0 mm 1 mps 748 mmHg 66%
    08:00 -1°C° 0 mm 1 mps 748 mmHg 60%
    09:00 -1°C° 0 mm 1 mps 748 mmHg 55%
    10:00 0°C° 0 mm 1 mps 749 mmHg 49%
    11:00 +1°C° 0 mm 1 mps 749 mmHg 47%
    12:00 +1°C° 0 mm 1 mps 748 mmHg 45%
    13:00 +2°C° 0 mm 1 mps 748 mmHg 43%
    14:00 +1°C° 0 mm 1 mps 748 mmHg 48%
    15:00 +1°C° 0 mm 1 mps 748 mmHg 53%
    16:00 0°C° 0 mm 1 mps 748 mmHg 58%
    17:00 -1°C° 0 mm 1 mps 748 mmHg 63%
    18:00 -1°C° 0 mm 1 mps 748 mmHg 67%
    19:00 -2°C° 0 mm 1 mps 748 mmHg 72%
    20:00 -3°C° 0 mm 0 mps 748 mmHg 74%
    21:00 -3°C° 0 mm 0 mps 748 mmHg 76%
    22:00 -3°C° 0 mm 0 mps 748 mmHg 78%
    23:00 -2°C° 0 mm 1 mps 748 mmHg 80%

    Day after tomorrow, 22 January, Tuesday

    Time Temperature Precipitation Wind Pressure Humidity
    00:00 -2°C° 0 mm 1 mps 747 mmHg 81%
    01:00 -2°C° 0 mm 1 mps 747 mmHg 82%
    02:00 -3°C° 0 mm 1 mps 747 mmHg 84%
    03:00 -3°C° 0 mm 1 mps 746 mmHg 87%
    04:00 -3°C° 0 mm 1 mps 746 mmHg 89%
    05:00 -3°C° 0 mm 1 mps 746 mmHg 90%
    06:00 -3°C° 0 mm 1 mps 746 mmHg 90%
    07:00 -3°C° 0 mm 1 mps 745 mmHg 91%
    08:00 -3°C° 0 mm 1 mps 745 mmHg 88%
    09:00 -4°C° 0 mm 2 mps 745 mmHg 84%
    10:00 -4°C° 0 mm 2 mps 745 mmHg 80%
    11:00 -3°C° 0 mm 2 mps 744 mmHg 78%
    12:00 -3°C° 0 mm 2 mps 743 mmHg 76%
    13:00 -2°C° 0 mm 2 mps 742 mmHg 74%
    14:00 -2°C° 0 mm 2 mps 742 mmHg 77%
    15:00 -2°C° 0 mm 2 mps 741 mmHg 79%
    16:00 -3°C° 0 mm 2 mps 741 mmHg 82%
    17:00 -3°C° 0 mm 2 mps 740 mmHg 85%
    18:00 -3°C° 0 mm 2 mps 740 mmHg 88%
    19:00 -4°C° 0 mm 2 mps 740 mmHg 91%
    20:00 -3°C° 0.2 mm 2 mps 739 mmHg 91%
    21:00 -3°C° 0.2 mm 2 mps 739 mmHg 91%
    22:00 -4°C° 0.2 mm 3 mps 738 mmHg 91%
    23:00 -4°C° 0.1 mm 3 mps 738 mmHg 91%

    23 January, Wednesday

    Time Temperature Precipitation Wind Pressure Humidity
    00:00 -4°C° 0.1 mm 3 mps 737 mmHg 91%
    01:00 -4°C° 0.1 mm 3 mps 736 mmHg 90%
    02:00 -4°C° 0.1 mm 3 mps 736 mmHg 90%
    03:00 -4°C° 0.1 mm 3 mps 735 mmHg 90%
    04:00 -4°C° 0.1 mm 3 mps 734 mmHg 90%
    05:00 -4°C° 0.1 mm 3 mps 734 mmHg 89%
    06:00 -2°C° 0.1 mm 3 mps 734 mmHg 89%
    07:00 -2°C° 0.1 mm 3 mps 733 mmHg 88%
    08:00 -3°C° 0.2 mm 4 mps 733 mmHg 88%
    09:00 -2°C° 0.2 mm 4 mps 733 mmHg 88%
    10:00 -2°C° 0.2 mm 4 mps 733 mmHg 87%
    11:00 -2°C° 0.2 mm 4 mps 733 mmHg 87%
    12:00 -1°C° 0.2 mm 4 mps 732 mmHg 87%
    13:00 -1°C° 0.2 mm 4 mps 732 mmHg 87%
    14:00 0°C° 0.2 mm 3 mps 732 mmHg 88%
    15:00 0°C° 0.2 mm 3 mps 732 mmHg 90%
    16:00 0°C° 0.2 mm 3 mps 732 mmHg 91%
    17:00 +1°C° 0.2 mm 2 mps 733 mmHg 92%
    18:00 +1°C° 0.2 mm 2 mps 733 mmHg 94%
    19:00 +1°C° 0.2 mm 2 mps 733 mmHg 95%
    20:00 +1°C° 0.1 mm 2 mps 734 mmHg 95%
    21:00 +1°C° 0.1 mm 2 mps 734 mmHg 95%
    22:00 +1°C° 0.1 mm 2 mps 735 mmHg 96%
    23:00 +1°C° 0 mm 1 mps 735 mmHg 96%

    24 January, Thursday

    Time Temperature Precipitation Wind Pressure Humidity
    00:00 +1°C° 0 mm 1 mps 735 mmHg 96%
    01:00 +1°C° 0 mm 1 mps 736 mmHg 96%
    02:00 +1°C° 0 mm 1 mps 736 mmHg 96%
    03:00 +1°C° 0 mm 1 mps 736 mmHg 96%
    04:00 +1°C° 0 mm 1 mps 736 mmHg 96%
    05:00 +1°C° 0 mm 1 mps 736 mmHg 96%
    06:00 +1°C° 0 mm 1 mps 737 mmHg 95%
    07:00 +1°C° 0 mm 1 mps 737 mmHg 95%
    08:00 +2°C° 0 mm 1 mps 737 mmHg 94%
    09:00 +2°C° 0 mm 1 mps 738 mmHg 92%
    10:00 +2°C° 0 mm 2 mps 738 mmHg 91%
    11:00 +2°C° 0 mm 2 mps 738 mmHg 89%
    12:00 +3°C° 0 mm 2 mps 738 mmHg 88%
    13:00 +3°C° 0 mm 2 mps 738 mmHg 87%
    14:00 +3°C° 0 mm 2 mps 738 mmHg 88%
    15:00 +2°C° 0 mm 2 mps 737 mmHg 90%
    16:00 +1°C° 0 mm 2 mps 737 mmHg 92%
    17:00 +1°C° 0 mm 2 mps 738 mmHg 92%
    18:00 -1°C° 0 mm 2 mps 738 mmHg 92%
    19:00 -1°C° 0 mm 2 mps 738 mmHg 92%
    20:00 -1°C° 0 mm 2 mps 738 mmHg 91%
    21:00 -1°C° 0 mm 2 mps 738 mmHg 91%
    22:00 -1°C° 0 mm 3 mps 738 mmHg 90%
    23:00 -1°C° 0 mm 2 mps 738 mmHg 90%

    25 January, Friday

    Time Temperature Precipitation Wind Pressure Humidity
    00:00 -1°C° 0 mm 2 mps 738 mmHg 89%
    01:00 -1°C° 0 mm 2 mps 738 mmHg 89%
    02:00 -1°C° 0 mm 2 mps 738 mmHg 87%
    03:00 -1°C° 0 mm 2 mps 738 mmHg 86%
    04:00 -1°C° 0 mm 2 mps 738 mmHg 85%
    05:00 -1°C° 0 mm 2 mps 738 mmHg 84%
    06:00 -1°C° 0 mm 2 mps 738 mmHg 83%
    07:00 -1°C° 0 mm 2 mps 738 mmHg 82%
    08:00 0°C° 0.1 mm 3 mps 738 mmHg 80%
    09:00 0°C° 0.1 mm 3 mps 738 mmHg 79%
    10:00 +1°C° 0.1 mm 3 mps 739 mmHg 77%
    11:00 +1°C° 0.1 mm 3 mps 739 mmHg 76%
    12:00 +1°C° 0.1 mm 3 mps 738 mmHg 76%
    13:00 +2°C° 0.1 mm 3 mps 738 mmHg 75%
    14:00 +1°C° 0.1 mm 3 mps 738 mmHg 77%
    15:00 +1°C° 0.1 mm 3 mps 738 mmHg 78%
    16:00 +1°C° 0.1 mm 3 mps 738 mmHg 80%
    17:00 0°C° 0.1 mm 3 mps 738 mmHg 80%
    18:00 0°C° 0.1 mm 3 mps 738 mmHg 80%
    19:00 0°C° 0.1 mm 3 mps 739 mmHg 80%
    20:00 -1°C° 0.1 mm 3 mps 739 mmHg 80%
    21:00 -1°C° 0.1 mm 3 mps 739 mmHg 80%
    22:00 -1°C° 0.1 mm 3 mps 739 mmHg 80%
    23:00 -1°C° 0.1 mm 3 mps 739 mmHg 79%
    Show more